Year,Month,Day,Hour,Minute,Value (Times are PST for temperature in C)
2013,11,17,00,00,0.90
2013,11,17,00,01,1.00
2013,11,17,00,02,1.10
2013,11,17,00,03,1.10
2013,11,17,00,04,1.10
2013,11,17,00,05,1.00
2013,11,17,00,06,1.00
2013,11,17,00,07,0.90
2013,11,17,00,08,0.80
2013,11,17,00,09,0.80
2013,11,17,00,10,0.80
2013,11,17,00,11,0.80
2013,11,17,00,12,0.80
2013,11,17,00,13,0.80
2013,11,17,00,14,0.80
2013,11,17,00,15,0.80
2013,11,17,00,16,0.70
2013,11,17,00,17,0.70
2013,11,17,00,18,0.70
2013,11,17,00,19,0.60
2013,11,17,00,20,0.60
2013,11,17,00,21,0.50
2013,11,17,00,22,0.40
2013,11,17,00,23,0.40
2013,11,17,00,24,0.40
2013,11,17,00,25,0.40
2013,11,17,00,26,0.40
2013,11,17,00,27,0.40
2013,11,17,00,28,0.40
2013,11,17,00,29,0.50
2013,11,17,00,30,0.50
2013,11,17,00,31,0.70
2013,11,17,00,32,0.80
2013,11,17,00,33,0.80
2013,11,17,00,34,0.90
2013,11,17,00,35,1.00
2013,11,17,00,36,1.10
2013,11,17,00,37,1.20
2013,11,17,00,38,1.30
2013,11,17,00,39,1.30
2013,11,17,00,40,1.30
2013,11,17,00,41,1.30
2013,11,17,00,42,1.30
2013,11,17,00,43,1.30
2013,11,17,00,44,1.30
2013,11,17,00,45,1.40
2013,11,17,00,46,1.50
2013,11,17,00,47,1.60
2013,11,17,00,48,1.60
2013,11,17,00,49,1.60
2013,11,17,00,50,1.60
2013,11,17,00,51,1.60
2013,11,17,00,52,1.70
2013,11,17,00,53,1.60
2013,11,17,00,54,1.60
2013,11,17,00,55,1.60
2013,11,17,00,56,1.60
2013,11,17,00,57,1.70
2013,11,17,00,58,1.70
2013,11,17,00,59,1.80
2013,11,17,01,00,1.80
2013,11,17,01,01,1.80
2013,11,17,01,02,1.90
2013,11,17,01,03,1.90
2013,11,17,01,04,1.90
2013,11,17,01,05,1.90
2013,11,17,01,06,1.90
2013,11,17,01,07,1.90
2013,11,17,01,08,2.00
2013,11,17,01,09,2.10
2013,11,17,01,10,2.10
2013,11,17,01,11,2.10
2013,11,17,01,12,2.10
2013,11,17,01,13,2.10
2013,11,17,01,14,2.10
2013,11,17,01,15,2.10
2013,11,17,02,06,1.00
2013,11,17,02,07,1.00
2013,11,17,02,08,0.90
2013,11,17,02,09,0.90
2013,11,17,02,10,0.90
2013,11,17,02,11,0.90
2013,11,17,02,12,0.90
2013,11,17,02,13,0.90
2013,11,17,02,14,0.80
2013,11,17,02,15,0.80
2013,11,17,02,16,0.80
2013,11,17,02,17,0.80
2013,11,17,02,18,0.80
2013,11,17,02,19,0.80
2013,11,17,02,20,0.80
2013,11,17,02,21,0.80
2013,11,17,02,22,0.80
2013,11,17,02,23,0.70
2013,11,17,02,24,0.70
2013,11,17,02,25,0.70
2013,11,17,02,26,0.70
2013,11,17,02,27,0.70
2013,11,17,02,28,0.70
2013,11,17,02,29,0.70
2013,11,17,02,30,0.60
2013,11,17,02,31,0.60
2013,11,17,02,32,0.60
2013,11,17,02,33,0.60
2013,11,17,02,34,0.60
2013,11,17,02,35,0.60
2013,11,17,02,36,0.60
2013,11,17,02,37,0.50
2013,11,17,02,38,0.50
2013,11,17,02,39,0.50
2013,11,17,02,40,0.50
2013,11,17,02,41,0.50
2013,11,17,02,42,0.50
2013,11,17,02,43,0.50
2013,11,17,02,44,0.50
2013,11,17,02,45,0.50
2013,11,17,02,46,0.50
2013,11,17,02,47,0.50
2013,11,17,02,48,0.50
2013,11,17,02,49,0.50
2013,11,17,02,50,0.50
2013,11,17,02,51,0.60
2013,11,17,02,52,0.60
2013,11,17,02,53,0.60
2013,11,17,02,54,0.60
2013,11,17,02,55,0.60
2013,11,17,02,56,0.60
2013,11,17,02,57,0.60
2013,11,17,02,58,0.60
2013,11,17,02,59,0.60
2013,11,17,03,00,0.60
2013,11,17,03,01,0.60
2013,11,17,03,02,0.60
2013,11,17,03,03,0.60
2013,11,17,03,04,0.60
2013,11,17,03,05,0.60
2013,11,17,03,06,0.60
2013,11,17,03,07,0.60
2013,11,17,03,08,0.60
2013,11,17,03,09,0.60
2013,11,17,03,10,0.60
2013,11,17,03,11,0.60
2013,11,17,03,12,0.60
2013,11,17,03,13,0.70
2013,11,17,03,14,0.70
2013,11,17,03,15,0.70
2013,11,17,03,16,0.70
2013,11,17,03,17,0.70
2013,11,17,03,18,0.80
2013,11,17,03,19,0.80
2013,11,17,03,20,0.80
2013,11,17,03,21,0.80
2013,11,17,03,22,0.90
2013,11,17,03,23,0.90
2013,11,17,03,24,0.90
2013,11,17,03,25,0.90
2013,11,17,03,26,0.90
2013,11,17,03,27,0.90
2013,11,17,03,28,0.90
2013,11,17,03,29,0.90
2013,11,17,03,30,1.00
2013,11,17,03,31,1.00
2013,11,17,03,32,1.00
2013,11,17,03,33,1.00
2013,11,17,03,34,1.00
2013,11,17,03,35,1.00
2013,11,17,03,36,1.00
2013,11,17,03,37,1.00
2013,11,17,03,38,1.00
2013,11,17,03,39,1.10
2013,11,17,03,40,1.10
2013,11,17,03,41,1.10
2013,11,17,03,42,1.10
2013,11,17,03,43,1.10
2013,11,17,03,44,1.10
2013,11,17,03,45,1.10
2013,11,17,03,46,1.10
2013,11,17,03,47,1.10
2013,11,17,03,48,1.10
2013,11,17,03,49,1.10
2013,11,17,03,50,1.10
2013,11,17,03,51,1.20
2013,11,17,03,52,1.20
2013,11,17,03,53,1.20
2013,11,17,03,54,1.20
2013,11,17,03,55,1.20
2013,11,17,03,56,1.20
2013,11,17,03,57,1.20
2013,11,17,03,58,1.20
2013,11,17,03,59,1.20
2013,11,17,04,00,1.20
2013,11,17,04,01,1.30
2013,11,17,04,02,1.30
2013,11,17,04,03,1.30
2013,11,17,04,04,1.30
2013,11,17,04,05,1.30
2013,11,17,04,06,1.30
2013,11,17,04,07,1.30
2013,11,17,04,08,1.30
2013,11,17,04,09,1.30
2013,11,17,04,10,1.30
2013,11,17,04,11,1.30
2013,11,17,04,12,1.30
2013,11,17,04,13,1.30
2013,11,17,04,14,1.30
2013,11,17,04,15,1.30
2013,11,17,04,16,1.30
2013,11,17,04,17,1.30
2013,11,17,04,18,1.30
2013,11,17,04,19,1.30
2013,11,17,04,20,1.30
2013,11,17,04,21,1.30
2013,11,17,04,22,1.30
2013,11,17,04,23,1.40
2013,11,17,04,24,1.40
2013,11,17,04,25,1.40
2013,11,17,04,26,1.40
2013,11,17,04,27,1.40
2013,11,17,04,28,1.40
2013,11,17,04,29,1.40
2013,11,17,04,30,1.40
2013,11,17,04,31,1.40
2013,11,17,04,32,1.40
2013,11,17,04,33,1.40
2013,11,17,04,34,1.50
2013,11,17,04,35,1.50
2013,11,17,04,36,1.50
2013,11,17,04,37,1.50
2013,11,17,04,38,1.50
2013,11,17,04,39,1.50
2013,11,17,04,40,1.50
2013,11,17,04,41,1.50
2013,11,17,04,42,1.60
2013,11,17,04,43,1.60
2013,11,17,04,44,1.60
2013,11,17,04,45,1.60
2013,11,17,04,46,1.60
2013,11,17,04,47,1.60
2013,11,17,04,48,1.60
2013,11,17,04,49,1.60
2013,11,17,04,50,1.60
2013,11,17,04,51,1.60
2013,11,17,04,52,1.60
2013,11,17,04,53,1.60
2013,11,17,04,54,1.70
2013,11,17,04,55,1.70
2013,11,17,04,56,1.70
2013,11,17,04,57,1.70
2013,11,17,04,58,1.70
2013,11,17,04,59,1.70
2013,11,17,05,00,1.70
2013,11,17,05,01,1.70
2013,11,17,05,02,1.70
2013,11,17,05,03,1.70
2013,11,17,05,04,1.70
2013,11,17,05,05,1.70
2013,11,17,05,06,1.70
2013,11,17,05,07,1.70
2013,11,17,05,08,1.70
2013,11,17,05,09,1.70
2013,11,17,05,10,1.70
2013,11,17,05,11,1.70
2013,11,17,05,12,1.70
2013,11,17,05,13,1.70
2013,11,17,05,14,1.70
2013,11,17,05,15,1.80
2013,11,17,05,16,1.80
2013,11,17,05,17,1.80
2013,11,17,05,18,1.80
2013,11,17,05,19,1.80
2013,11,17,05,20,1.80
2013,11,17,05,21,1.80
2013,11,17,05,22,1.80
2013,11,17,05,23,1.80
2013,11,17,05,24,1.80
2013,11,17,05,25,1.80
2013,11,17,05,26,1.80
2013,11,17,05,27,1.90
2013,11,17,05,28,1.90
2013,11,17,05,29,1.90
2013,11,17,05,30,1.90
2013,11,17,05,31,1.90
2013,11,17,05,32,1.90
2013,11,17,05,33,1.90
2013,11,17,05,34,1.90
2013,11,17,05,35,1.90
2013,11,17,05,36,1.90
2013,11,17,05,37,1.90
2013,11,17,05,38,1.90
2013,11,17,05,39,1.90
2013,11,17,05,40,1.90
2013,11,17,05,41,1.90
2013,11,17,05,42,1.90
2013,11,17,05,43,2.00
2013,11,17,05,44,2.00
2013,11,17,05,45,2.00
2013,11,17,05,46,2.00
2013,11,17,05,47,2.00
2013,11,17,05,48,2.00
2013,11,17,05,49,2.00
2013,11,17,05,50,2.00
2013,11,17,05,51,2.00
2013,11,17,05,52,2.00
2013,11,17,05,53,2.00
2013,11,17,05,54,2.00
2013,11,17,05,55,2.00
2013,11,17,05,56,2.10
2013,11,17,05,57,2.10
2013,11,17,05,58,2.10
2013,11,17,05,59,2.10
2013,11,17,06,00,2.10
2013,11,17,06,01,2.10
2013,11,17,06,02,2.10
2013,11,17,06,03,2.10
2013,11,17,06,04,2.10
2013,11,17,06,05,2.10
2013,11,17,06,06,2.10
2013,11,17,06,07,2.10
2013,11,17,06,08,2.10
2013,11,17,06,09,2.10
2013,11,17,06,10,2.10
2013,11,17,06,11,2.10
2013,11,17,06,12,2.10
2013,11,17,06,13,2.10
2013,11,17,06,14,2.10
2013,11,17,06,15,2.00
2013,11,17,06,16,2.00
2013,11,17,06,17,2.00
2013,11,17,06,18,2.00
2013,11,17,06,19,2.00
2013,11,17,06,20,1.90
2013,11,17,06,21,1.90
2013,11,17,06,22,1.90
2013,11,17,06,23,1.90
2013,11,17,06,24,1.80
2013,11,17,06,25,1.80
2013,11,17,06,26,1.80
2013,11,17,06,27,1.80
2013,11,17,06,28,1.80
2013,11,17,06,29,1.80
2013,11,17,06,30,1.80
2013,11,17,06,31,1.80
2013,11,17,06,32,1.80
2013,11,17,06,33,1.80
2013,11,17,06,34,1.80
2013,11,17,06,35,1.80
2013,11,17,06,36,1.80
2013,11,17,06,37,1.80
2013,11,17,06,38,1.80
2013,11,17,06,39,1.80
2013,11,17,06,40,1.80
2013,11,17,06,41,1.80
2013,11,17,06,42,1.80
2013,11,17,06,43,1.80
2013,11,17,06,44,1.80
2013,11,17,06,45,1.80
2013,11,17,06,46,1.80
2013,11,17,06,47,1.80
2013,11,17,06,48,1.80
2013,11,17,06,49,1.80
2013,11,17,06,50,1.80
2013,11,17,06,51,1.80
2013,11,17,06,52,1.80
2013,11,17,06,53,1.80
2013,11,17,06,54,1.80
2013,11,17,06,55,1.90
2013,11,17,06,56,1.90
2013,11,17,06,57,1.90
2013,11,17,06,58,1.90
2013,11,17,06,59,1.90
2013,11,17,07,00,1.90
2013,11,17,07,01,1.90
2013,11,17,07,02,1.90
2013,11,17,07,03,2.00
2013,11,17,07,04,2.00
2013,11,17,07,05,2.00
2013,11,17,07,06,1.90
2013,11,17,07,07,2.00
2013,11,17,07,08,2.00
2013,11,17,07,09,2.00
2013,11,17,07,10,2.00
2013,11,17,07,11,2.00
2013,11,17,07,12,2.00
2013,11,17,07,13,2.00
2013,11,17,07,14,2.10
2013,11,17,07,15,2.10
2013,11,17,07,16,2.10
2013,11,17,07,17,2.10
2013,11,17,07,18,2.10
2013,11,17,07,19,2.10
2013,11,17,07,20,2.10
2013,11,17,07,21,2.10
2013,11,17,07,22,2.10
2013,11,17,07,23,2.10
2013,11,17,07,24,2.20
2013,11,17,07,25,2.20
2013,11,17,07,26,2.20
2013,11,17,07,27,2.20
2013,11,17,07,28,2.20
2013,11,17,07,29,2.20
2013,11,17,07,30,2.20
2013,11,17,07,31,2.20
2013,11,17,07,32,2.20
2013,11,17,07,33,2.20
2013,11,17,07,34,2.20
2013,11,17,07,35,2.20
2013,11,17,07,36,2.20
2013,11,17,07,37,2.30
2013,11,17,07,38,2.30
2013,11,17,07,39,2.30
2013,11,17,07,40,2.30
2013,11,17,07,41,2.30
2013,11,17,07,42,2.30
2013,11,17,07,43,2.30
2013,11,17,07,44,2.30
2013,11,17,07,45,2.30
2013,11,17,07,46,2.30
2013,11,17,07,47,2.30
2013,11,17,07,48,2.30
2013,11,17,07,49,2.30
2013,11,17,07,50,2.30
2013,11,17,07,51,2.30
2013,11,17,07,52,2.30
2013,11,17,07,53,2.30
2013,11,17,07,54,2.30
2013,11,17,07,55,2.30
2013,11,17,07,56,2.30
2013,11,17,07,57,2.30
2013,11,17,07,58,2.30
2013,11,17,07,59,2.30
2013,11,17,08,00,2.30
2013,11,17,08,01,2.30
2013,11,17,08,02,2.40
2013,11,17,08,03,2.40
2013,11,17,08,04,2.40
2013,11,17,08,05,2.40
2013,11,17,08,06,2.40
2013,11,17,08,07,2.40
2013,11,17,08,08,2.40
2013,11,17,08,09,2.40
2013,11,17,08,10,2.40
2013,11,17,08,11,2.50
2013,11,17,08,12,2.50
2013,11,17,08,13,2.50
2013,11,17,08,14,2.50
2013,11,17,08,15,2.50
2013,11,17,08,16,2.50
2013,11,17,08,17,2.50
2013,11,17,08,18,2.60
2013,11,17,08,19,2.60
2013,11,17,08,20,2.60
2013,11,17,08,21,2.60
2013,11,17,08,22,2.60
2013,11,17,08,23,2.60
2013,11,17,08,24,2.60
2013,11,17,08,25,2.60
2013,11,17,08,26,2.60
2013,11,17,08,27,2.60
2013,11,17,08,28,2.60
2013,11,17,08,29,2.60
2013,11,17,08,30,2.60
2013,11,17,08,31,2.60
2013,11,17,08,32,2.60
2013,11,17,08,33,2.70
2013,11,17,08,34,2.70
2013,11,17,08,35,2.70
2013,11,17,08,36,2.70
2013,11,17,08,37,2.70
2013,11,17,08,38,2.70
2013,11,17,08,39,2.70
2013,11,17,08,40,2.70
2013,11,17,08,41,2.80
2013,11,17,08,42,2.80
2013,11,17,08,43,2.80
2013,11,17,08,44,2.80
2013,11,17,08,45,2.80
2013,11,17,08,46,2.80
2013,11,17,08,47,2.80
2013,11,17,08,48,2.90
2013,11,17,08,49,2.90
2013,11,17,08,50,2.90
2013,11,17,08,51,2.90
2013,11,17,08,52,2.90
2013,11,17,08,53,2.90
2013,11,17,08,54,2.90
2013,11,17,08,55,2.90
2013,11,17,08,56,2.90
2013,11,17,08,57,2.90
2013,11,17,08,58,3.00
2013,11,17,08,59,3.00
2013,11,17,09,00,3.00
2013,11,17,09,01,3.10
2013,11,17,09,02,3.10
2013,11,17,09,03,3.10
2013,11,17,09,04,3.10
2013,11,17,09,05,3.10
2013,11,17,09,06,3.10
2013,11,17,09,07,3.10
2013,11,17,09,08,3.20
2013,11,17,09,09,3.20
2013,11,17,09,10,3.20
2013,11,17,09,11,3.20
2013,11,17,09,12,3.20
2013,11,17,09,13,3.20
2013,11,17,09,14,3.30
2013,11,17,09,15,3.30
2013,11,17,09,16,3.20
2013,11,17,09,17,3.20
2013,11,17,09,18,3.20
2013,11,17,09,19,3.20
2013,11,17,09,20,3.30
2013,11,17,09,21,3.30
2013,11,17,09,22,3.30
2013,11,17,09,23,3.30
2013,11,17,09,24,3.30
2013,11,17,09,25,3.30
2013,11,17,09,26,3.40
2013,11,17,09,27,3.40
2013,11,17,09,28,3.40
2013,11,17,09,29,3.40
2013,11,17,09,30,3.40
2013,11,17,09,31,3.40
2013,11,17,09,32,3.40
2013,11,17,09,33,3.50
2013,11,17,09,34,3.50
2013,11,17,09,35,3.50
2013,11,17,09,36,3.50
2013,11,17,09,37,3.50
2013,11,17,09,38,3.50
2013,11,17,09,39,3.50
2013,11,17,09,40,3.50
2013,11,17,09,41,3.50
2013,11,17,09,42,3.50
2013,11,17,09,43,3.60
2013,11,17,09,44,3.60
2013,11,17,09,45,3.60
2013,11,17,09,46,3.60
2013,11,17,09,47,3.60
2013,11,17,09,48,3.70
2013,11,17,09,49,3.70
2013,11,17,09,50,3.80
2013,11,17,09,51,3.80
2013,11,17,09,52,3.80
2013,11,17,09,53,3.80
2013,11,17,09,54,3.90
2013,11,17,09,55,3.90
2013,11,17,09,56,4.00
2013,11,17,09,57,4.00
2013,11,17,09,58,4.00
2013,11,17,09,59,4.00
2013,11,17,10,00,4.00
2013,11,17,10,01,4.00
2013,11,17,10,02,4.00
2013,11,17,10,03,4.10
2013,11,17,10,04,4.10
2013,11,17,10,05,4.10
2013,11,17,10,06,4.10
2013,11,17,10,07,4.10
2013,11,17,10,08,4.20
2013,11,17,10,09,4.20
2013,11,17,10,10,4.20
2013,11,17,10,11,4.20
2013,11,17,10,12,4.20
2013,11,17,10,13,4.30
2013,11,17,10,14,4.30
2013,11,17,10,15,4.30
2013,11,17,10,16,4.30
2013,11,17,10,17,4.30
2013,11,17,10,18,4.30
2013,11,17,10,19,4.30
2013,11,17,10,20,4.30
2013,11,17,10,21,4.30
2013,11,17,10,22,4.30
2013,11,17,10,23,4.30
2013,11,17,10,24,4.40
2013,11,17,10,25,4.40
2013,11,17,10,26,4.40
2013,11,17,10,27,4.40
2013,11,17,10,28,4.40
2013,11,17,10,29,4.40
2013,11,17,10,30,4.40
2013,11,17,10,31,4.40
2013,11,17,10,32,4.50
2013,11,17,10,33,4.50
2013,11,17,10,34,4.50
2013,11,17,10,35,4.60
2013,11,17,10,36,4.70
2013,11,17,10,37,4.80
2013,11,17,10,38,4.90
2013,11,17,10,39,4.90
2013,11,17,10,40,5.00
2013,11,17,10,41,5.00
2013,11,17,10,42,5.10
2013,11,17,10,43,5.10
2013,11,17,10,44,5.20
2013,11,17,10,45,5.10
2013,11,17,10,46,5.10
2013,11,17,10,47,5.10
2013,11,17,10,48,5.20
2013,11,17,10,49,5.20
2013,11,17,10,50,5.20
2013,11,17,10,51,5.20
2013,11,17,10,52,5.20
2013,11,17,10,53,5.30
2013,11,17,10,54,5.30
2013,11,17,10,55,5.40
2013,11,17,10,56,5.40
2013,11,17,10,57,5.50
2013,11,17,10,58,5.60
2013,11,17,10,59,5.80
2013,11,17,11,00,5.80
2013,11,17,11,01,5.90
2013,11,17,11,02,5.90
2013,11,17,11,03,5.90
2013,11,17,11,04,5.90
2013,11,17,11,05,6.00
2013,11,17,11,06,6.10
2013,11,17,11,07,6.20
2013,11,17,11,08,6.30
2013,11,17,11,09,6.30
2013,11,17,11,10,6.40
2013,11,17,11,11,6.50
2013,11,17,11,12,6.60
2013,11,17,11,13,6.70
2013,11,17,11,14,6.80
2013,11,17,11,15,6.80
2013,11,17,11,16,6.90
2013,11,17,11,17,6.90
2013,11,17,11,18,7.00
2013,11,17,11,19,7.00
2013,11,17,11,20,7.10
2013,11,17,11,21,7.10
2013,11,17,11,22,7.10
2013,11,17,11,23,7.20
2013,11,17,11,24,7.20
2013,11,17,11,25,7.30
2013,11,17,11,26,7.30
2013,11,17,11,27,7.30
2013,11,17,11,28,7.30
2013,11,17,11,29,7.20
2013,11,17,11,30,7.20
2013,11,17,11,31,7.20
2013,11,17,11,32,7.20
2013,11,17,11,33,7.20
2013,11,17,11,34,7.20
2013,11,17,11,35,7.20
2013,11,17,11,36,7.20
2013,11,17,11,37,7.20
2013,11,17,11,38,7.30
2013,11,17,11,39,7.40
2013,11,17,11,40,7.50
2013,11,17,11,41,7.60
2013,11,17,11,42,7.70
2013,11,17,11,43,7.80
2013,11,17,11,44,7.90
2013,11,17,11,45,7.90
2013,11,17,11,46,8.00
2013,11,17,11,47,8.10
2013,11,17,11,48,8.10
2013,11,17,11,49,8.20
2013,11,17,11,50,8.20
2013,11,17,11,51,8.20
2013,11,17,11,52,8.20
2013,11,17,11,53,8.30
2013,11,17,11,54,8.30
2013,11,17,11,55,8.30
2013,11,17,11,56,8.30
2013,11,17,11,57,8.40
2013,11,17,11,58,8.40
2013,11,17,11,59,8.40
2013,11,17,12,00,8.40
2013,11,17,12,01,8.40
2013,11,17,12,02,8.40
2013,11,17,12,03,8.40
2013,11,17,12,04,8.40
2013,11,17,12,05,8.40
2013,11,17,12,06,8.40
2013,11,17,12,07,8.40
2013,11,17,12,08,8.40
2013,11,17,12,09,8.40
2013,11,17,12,10,8.50
2013,11,17,12,11,8.50
2013,11,17,12,12,8.60
2013,11,17,12,13,8.60
2013,11,17,12,14,8.60
2013,11,17,12,15,8.70
2013,11,17,12,16,8.70
2013,11,17,12,17,8.70
2013,11,17,12,18,8.70
2013,11,17,12,19,8.70
2013,11,17,12,20,8.70
2013,11,17,12,21,8.70
2013,11,17,12,22,8.70
2013,11,17,12,23,8.70
2013,11,17,12,24,8.70
2013,11,17,12,25,8.70
2013,11,17,12,26,8.60
2013,11,17,12,27,8.60
2013,11,17,12,28,8.60
2013,11,17,12,29,8.60
2013,11,17,12,30,8.60
2013,11,17,12,31,8.60
2013,11,17,12,32,8.60
2013,11,17,12,33,8.60
2013,11,17,12,34,8.60
2013,11,17,12,35,8.60
2013,11,17,12,36,8.60
2013,11,17,12,37,8.60
2013,11,17,12,38,8.60
2013,11,17,12,39,8.60
2013,11,17,12,40,8.60
2013,11,17,12,41,8.60
2013,11,17,12,42,8.60
2013,11,17,12,43,8.60
2013,11,17,12,44,8.60
2013,11,17,12,45,8.60
2013,11,17,12,46,8.60
2013,11,17,12,47,8.60
2013,11,17,12,48,8.60
2013,11,17,12,49,8.60
2013,11,17,12,50,8.60
2013,11,17,12,51,8.60
2013,11,17,12,52,8.60
2013,11,17,12,53,8.60
2013,11,17,12,54,8.50
2013,11,17,12,55,8.50
2013,11,17,12,56,8.40
2013,11,17,12,57,8.40
2013,11,17,12,58,8.40
2013,11,17,12,59,8.30
2013,11,17,13,00,8.30
2013,11,17,13,01,8.30
2013,11,17,13,02,8.30
2013,11,17,13,03,8.20
2013,11,17,13,04,8.20
2013,11,17,13,05,8.20
2013,11,17,13,06,8.10
2013,11,17,13,07,8.10
2013,11,17,13,08,8.10
2013,11,17,13,09,8.00
2013,11,17,13,10,8.00
2013,11,17,13,11,7.90
2013,11,17,13,12,7.90
2013,11,17,13,13,7.90
2013,11,17,13,14,7.90
2013,11,17,13,15,7.90
2013,11,17,13,16,8.00
2013,11,17,13,17,8.00
2013,11,17,13,18,8.00
2013,11,17,13,19,8.00
2013,11,17,13,20,8.00
2013,11,17,13,21,8.00
2013,11,17,13,22,8.00
2013,11,17,13,23,7.90
2013,11,17,13,24,7.90
2013,11,17,13,25,7.90
2013,11,17,13,26,7.90
2013,11,17,13,27,7.90
2013,11,17,13,28,7.90
2013,11,17,13,29,7.90
2013,11,17,13,30,7.90
2013,11,17,13,31,8.00
2013,11,17,13,32,8.00
2013,11,17,13,33,8.00
2013,11,17,13,34,8.00
2013,11,17,13,35,8.00
2013,11,17,13,36,8.00
2013,11,17,13,37,8.00
2013,11,17,13,38,8.00
2013,11,17,13,39,8.00
2013,11,17,13,40,8.00
2013,11,17,13,41,8.00
2013,11,17,13,42,8.00
2013,11,17,13,43,8.00
2013,11,17,13,44,8.00
2013,11,17,13,45,8.00
2013,11,17,13,46,8.00
2013,11,17,13,47,7.90
2013,11,17,13,48,7.90
2013,11,17,13,49,7.90
2013,11,17,13,50,7.90
2013,11,17,13,51,7.90
2013,11,17,13,52,7.90
2013,11,17,13,53,7.90
2013,11,17,13,54,7.90
2013,11,17,13,55,7.90
2013,11,17,13,56,7.80
2013,11,17,13,57,7.80
2013,11,17,13,58,7.80
2013,11,17,13,59,7.80
2013,11,17,14,00,7.80
2013,11,17,14,01,7.80
2013,11,17,14,02,7.80
2013,11,17,14,03,7.90
2013,11,17,14,04,7.90
2013,11,17,14,05,7.90
2013,11,17,14,06,7.90
2013,11,17,14,07,7.90
2013,11,17,14,08,7.90
2013,11,17,14,09,7.80
2013,11,17,14,10,7.80
2013,11,17,14,11,7.80
2013,11,17,14,12,7.80
2013,11,17,14,13,7.80
2013,11,17,14,14,7.80
2013,11,17,14,15,7.70
2013,11,17,14,16,7.70
2013,11,17,14,17,7.70
2013,11,17,14,18,7.60
2013,11,17,14,19,7.60
2013,11,17,14,20,7.60
2013,11,17,14,21,7.50
2013,11,17,14,22,7.50
2013,11,17,14,23,7.40
2013,11,17,14,24,7.40
2013,11,17,14,25,7.30
2013,11,17,14,26,7.30
2013,11,17,14,27,7.30
2013,11,17,14,28,7.30
2013,11,17,14,29,7.20
2013,11,17,14,30,7.20
2013,11,17,14,31,7.20
2013,11,17,14,32,7.20
2013,11,17,14,33,7.20
2013,11,17,14,34,7.20
2013,11,17,14,35,7.20
2013,11,17,14,36,7.20
2013,11,17,14,37,7.20
2013,11,17,14,38,7.20
2013,11,17,14,39,7.20
2013,11,17,14,40,7.20
2013,11,17,14,41,7.20
2013,11,17,14,42,7.20
2013,11,17,14,43,7.20
2013,11,17,14,44,7.20
2013,11,17,14,45,7.20
2013,11,17,14,46,7.20
2013,11,17,14,47,7.20
2013,11,17,14,48,7.20
2013,11,17,14,49,7.20
2013,11,17,14,50,7.20
2013,11,17,14,51,7.20
2013,11,17,14,52,7.20
2013,11,17,14,53,7.20
2013,11,17,14,54,7.20
2013,11,17,14,55,7.20
2013,11,17,14,56,7.20
2013,11,17,14,57,7.20
2013,11,17,14,58,7.20
2013,11,17,14,59,7.20
2013,11,17,15,00,7.20
2013,11,17,15,01,7.20
2013,11,17,15,02,7.20
2013,11,17,15,03,7.20
2013,11,17,15,04,7.20
2013,11,17,15,05,7.20
2013,11,17,15,06,7.20
2013,11,17,15,07,7.20
2013,11,17,15,08,7.20
2013,11,17,15,09,7.20
2013,11,17,15,10,7.20
2013,11,17,15,11,7.10
2013,11,17,15,12,7.10
2013,11,17,15,13,7.10
2013,11,17,15,14,7.00
2013,11,17,15,15,7.00
2013,11,17,15,16,6.90
2013,11,17,15,17,6.90
2013,11,17,15,18,6.90
2013,11,17,15,19,6.90
2013,11,17,15,20,6.90
2013,11,17,15,21,6.80
2013,11,17,15,22,6.80
2013,11,17,15,23,6.80
2013,11,17,15,24,6.80
2013,11,17,15,25,6.80
2013,11,17,15,26,6.80
2013,11,17,15,27,6.70
2013,11,17,15,28,6.70
2013,11,17,15,29,6.70
2013,11,17,15,30,6.70
2013,11,17,15,31,6.70
2013,11,17,15,32,6.70
2013,11,17,15,33,6.70
2013,11,17,15,34,6.70
2013,11,17,15,35,6.70
2013,11,17,15,36,6.70
2013,11,17,15,37,6.70
2013,11,17,15,38,6.70
2013,11,17,15,39,6.70
2013,11,17,15,40,6.70
2013,11,17,15,41,6.70
2013,11,17,15,42,6.70
2013,11,17,15,43,6.70
2013,11,17,15,44,6.60
2013,11,17,15,45,6.60
2013,11,17,15,46,6.60
2013,11,17,15,47,6.60
2013,11,17,15,48,6.60
2013,11,17,15,49,6.60
2013,11,17,15,50,6.60
2013,11,17,15,51,6.60
2013,11,17,15,52,6.60
2013,11,17,15,53,6.60
2013,11,17,15,54,6.60
2013,11,17,15,55,6.60
2013,11,17,15,56,6.60
2013,11,17,15,57,6.60
2013,11,17,15,58,6.60
2013,11,17,15,59,6.50
2013,11,17,16,00,6.50
2013,11,17,16,01,6.50
2013,11,17,16,02,6.50
2013,11,17,16,03,6.40
2013,11,17,16,04,6.40
2013,11,17,16,05,6.40
2013,11,17,16,06,6.40
2013,11,17,16,07,6.40
2013,11,17,16,08,6.40
2013,11,17,16,09,6.40
2013,11,17,16,10,6.30
2013,11,17,16,11,6.30
2013,11,17,16,12,6.30
2013,11,17,16,13,6.30
2013,11,17,16,14,6.30
2013,11,17,16,15,6.30
2013,11,17,16,16,6.30
2013,11,17,16,17,6.30
2013,11,17,16,18,6.30
2013,11,17,16,19,6.30
2013,11,17,16,20,6.30
2013,11,17,16,21,6.20
2013,11,17,16,22,6.20
2013,11,17,16,23,6.20
2013,11,17,16,24,6.20
2013,11,17,16,25,6.20
2013,11,17,16,26,6.20
2013,11,17,16,27,6.20
2013,11,17,16,28,6.20
2013,11,17,16,29,6.10
2013,11,17,16,30,6.10
2013,11,17,16,31,6.10
2013,11,17,16,32,6.10
2013,11,17,16,33,6.10
2013,11,17,16,34,6.00
2013,11,17,16,35,6.00
2013,11,17,16,36,6.00
2013,11,17,16,37,6.00
2013,11,17,16,38,5.90
2013,11,17,16,39,5.90
2013,11,17,16,40,5.90
2013,11,17,16,41,5.90
2013,11,17,16,42,5.90
2013,11,17,16,43,5.90
2013,11,17,16,44,5.90
2013,11,17,16,45,5.90
2013,11,17,16,46,5.80
2013,11,17,16,47,5.80
2013,11,17,16,48,5.80
2013,11,17,16,49,5.80
2013,11,17,16,50,5.80
2013,11,17,16,51,5.80
2013,11,17,16,52,5.80
2013,11,17,16,53,5.70
2013,11,17,16,54,5.70
2013,11,17,16,55,5.70
2013,11,17,16,56,5.70
2013,11,17,16,57,5.70
2013,11,17,16,58,5.70
2013,11,17,16,59,5.70
2013,11,17,17,00,5.70
2013,11,17,17,01,5.60
2013,11,17,17,02,5.60
2013,11,17,17,03,5.60
2013,11,17,17,04,5.60
2013,11,17,17,05,5.60
2013,11,17,17,06,5.60
2013,11,17,17,07,5.60
2013,11,17,17,08,5.60
2013,11,17,17,09,5.60
2013,11,17,17,10,5.60
2013,11,17,17,11,5.60
2013,11,17,17,12,5.60
2013,11,17,17,13,5.60
2013,11,17,17,14,5.60
2013,11,17,17,15,5.60
2013,11,17,17,16,5.60
2013,11,17,17,17,5.60
2013,11,17,17,18,5.60
2013,11,17,17,19,5.60
2013,11,17,17,20,5.60
2013,11,17,17,21,5.60
2013,11,17,17,22,5.60
2013,11,17,17,23,5.50
2013,11,17,17,24,5.50
2013,11,17,17,25,5.50
2013,11,17,17,26,5.50
2013,11,17,17,27,5.50
2013,11,17,17,28,5.50
2013,11,17,17,29,5.50
2013,11,17,17,30,5.40
2013,11,17,17,31,5.40
2013,11,17,17,32,5.40
2013,11,17,17,33,5.40
2013,11,17,17,34,5.40
2013,11,17,17,35,5.40
2013,11,17,17,36,5.40
2013,11,17,17,37,5.40
2013,11,17,17,38,5.40
2013,11,17,17,39,5.40
2013,11,17,17,40,5.40
2013,11,17,17,41,5.40
2013,11,17,17,42,5.40
2013,11,17,17,43,5.40
2013,11,17,17,44,5.40
2013,11,17,17,45,5.40
2013,11,17,17,46,5.40
2013,11,17,17,47,5.40
2013,11,17,17,48,5.40
2013,11,17,17,49,5.40
2013,11,17,17,50,5.40
2013,11,17,17,51,5.40
2013,11,17,17,52,5.40
2013,11,17,17,53,5.30
2013,11,17,17,54,5.30
2013,11,17,17,55,5.40
2013,11,17,17,56,5.30
2013,11,17,17,57,5.30
2013,11,17,17,58,5.30
2013,11,17,17,59,5.30
2013,11,17,18,00,5.30
2013,11,17,18,01,5.30
2013,11,17,18,02,5.30
2013,11,17,18,03,5.30
2013,11,17,18,04,5.30
2013,11,17,18,05,5.30
2013,11,17,18,06,5.30
2013,11,17,18,07,5.30
2013,11,17,18,08,5.30
2013,11,17,18,09,5.30
2013,11,17,18,10,5.30
2013,11,17,18,11,5.30
2013,11,17,18,12,5.30
2013,11,17,18,13,5.30
2013,11,17,18,14,5.30
2013,11,17,18,15,5.30
2013,11,17,18,16,5.30
2013,11,17,18,17,5.30
2013,11,17,18,18,5.30
2013,11,17,18,19,5.30
2013,11,17,18,20,5.30
2013,11,17,18,21,5.30
2013,11,17,18,22,5.20
2013,11,17,18,23,5.20
2013,11,17,18,24,5.20
2013,11,17,18,25,5.20
2013,11,17,18,26,5.20
2013,11,17,18,27,5.20
2013,11,17,18,28,5.20
2013,11,17,18,29,5.20
2013,11,17,18,30,5.20
2013,11,17,18,31,5.20
2013,11,17,18,32,5.20
2013,11,17,18,33,5.20
2013,11,17,18,34,5.20
2013,11,17,18,35,5.20
2013,11,17,18,36,5.10
2013,11,17,18,37,5.10
2013,11,17,18,38,5.10
2013,11,17,18,39,5.10
2013,11,17,18,40,5.10
2013,11,17,18,41,5.10
2013,11,17,18,42,5.10
2013,11,17,18,43,5.10
2013,11,17,18,44,5.10
2013,11,17,18,45,5.10
2013,11,17,18,46,5.10
2013,11,17,18,47,5.10
2013,11,17,18,48,5.10
2013,11,17,18,49,5.10
2013,11,17,18,50,5.10
2013,11,17,18,51,5.10
2013,11,17,18,52,5.10
2013,11,17,18,53,5.10
2013,11,17,18,54,5.00
2013,11,17,18,55,5.00
2013,11,17,18,56,5.00